QPF
0.04 0.04 0.04 0.02 0.01 0.01 0.01 0.00 0.01 0.00 0.01 0.00 0.01 0.01 0.01 0.01 0.00 0.00 0.00 0.00 0.00 0.00 0.00 0.00 0.00 0.00 0.00 0.00 0.00 0.00 0.00 0.00 0.00 0.00 0.00 0.00 0.00 0.00 0.00 0.00 0.00 0.00 0.00 0.00 0.00 0.00 0.00 0.00 0.00 0.00 0.00 0.00 0.00 0.00
0.03 0.03 0.02 0.01 0.01 0.01 0.00 0.01 0.00 0.00 0.01 0.01 0.01 0.00 0.01 0.01 0.00 0.00 0.00 0.00 0.00 0.00 0.00 0.00 0.00 0.00 0.00 0.00 0.00 0.00 0.00 0.00 0.00 0.00 0.00 0.00 0.00 0.00 0.00 0.00 0.00 0.00 0.00 0.00 0.00 0.00 0.00 0.00 0.00 0.00 0.00 0.00 0.00 0.00
0.02 0.02 0.01 0.01 0.01 0.01 0.00 0.00 0.00 0.01 0.03 0.01 0.00 0.00 0.00 0.01 0.00 0.00 0.00 0.00 0.00 0.00 0.00 0.00 0.00 0.00 0.00 0.00 0.00 0.00 0.00 0.00 0.00 0.00 0.00 0.00 0.00 0.00 0.00 0.00 0.00 0.00 0.00 0.00 0.00 0.00 0.00 0.00 0.00 0.00 0.00 0.00 0.00 0.00
0.02 0.01 0.00 0.01 0.01 0.00 0.00 0.00 0.00 0.01 0.01 0.00 0.00 0.00 0.01 0.00 0.00 0.00 0.00 0.00 0.00 0.00 0.00 0.00 0.00 0.00 0.00 0.00 0.00 0.00 0.00 0.00 0.00 0.00 0.00 0.00 0.00 0.00 0.00 0.00 0.00 0.00 0.00 0.00 0.00 0.00 0.00 0.00 0.00 0.00 0.00 0.00 0.00 0.00
0.01 0.01 0.00 0.01 0.00 0.00 0.00 0.00 0.01 0.01 0.01 0.01 0.00 0.01 0.00 0.00 0.00 0.00 0.00 0.00 0.00 0.00 0.00 0.00 0.00 0.00 0.00 0.00 0.00 0.00 0.00 0.00 0.00 0.00 0.00 0.00 0.00 0.00 0.00 0.00 0.00 0.00 0.00 0.00 0.00 0.00 0.00 0.00 0.00 0.00 0.00 0.00 0.00 0.00
0.01 0.00 0.00 0.00 0.00 0.00 0.00 0.01 0.01 0.01 0.01 0.01 0.01 0.00 0.00 0.00 0.00 0.00 0.00 0.00 0.00 0.00 0.00 0.00 0.00 0.00 0.00 0.00 0.00 0.00 0.00 0.00 0.00 0.00 0.00 0.00 0.00 0.00 0.00 0.00 0.00 0.00 0.00 0.00 0.00 0.00 0.00 0.00 0.00 0.00 0.00 0.00 0.00 0.00
0.01 0.00 0.00 0.00 0.01 0.00 0.00 0.00 0.01 0.01 0.01 0.01 0.00 0.00 0.00 0.00 0.00 0.00 0.00 0.00 0.00 0.00 0.00 0.00 0.00 0.00 0.00 0.00 0.00 0.00 0.00 0.00 0.00 0.00 0.00 0.00 0.00 0.00 0.00 0.00 0.00 0.00 0.00 0.00 0.00 0.00 0.00 0.00 0.00 0.00 0.00 0.00 0.00 0.00
0.01 0.00 0.00 0.00 0.00 0.00 0.00 0.01 0.01 0.01 0.01 0.01 0.00 0.00 0.00 0.00 0.00 0.00 0.00 0.00 0.00 0.00 0.00 0.00 0.00 0.00 0.00 0.00 0.00 0.00 0.00 0.00 0.00 0.00 0.00 0.00 0.00 0.00 0.00 0.00 0.00 0.00 0.00 0.00 0.00 0.00 0.00 0.00 0.00 0.00 0.00 0.00 0.00 0.00
0.01 0.00 0.00 0.00 0.00 0.00 0.00 0.00 0.01 0.01 0.01 0.00 0.00 0.00 0.00 0.00 0.00 0.00 0.00 0.00 0.00 0.00 0.00 0.00 0.00 0.00 0.00 0.00 0.00 0.00 0.00 0.00 0.00 0.00 0.00 0.00 0.00 0.00 0.00 0.00 0.00 0.00 0.00 0.00 0.00 0.00 0.00 0.00 0.00 0.00 0.00 0.00 0.00 0.00
0.00 0.00 0.00 0.00 0.00 0.00 0.00 0.00 0.00 0.00 0.00 0.00 0.00 0.00 0.00 0.00 0.00 0.00 0.00 0.00 0.00 0.00 0.00 0.00 0.00 0.00 0.00 0.00 0.00 0.00 0.00 0.00 0.00 0.00 0.00 0.00 0.00 0.00 0.00 0.00 0.00 0.00 0.00 0.00 0.00 0.00 0.00 0.00 0.00 0.00 0.00 0.00 0.00 0.00
0.00 0.00 0.00 0.00 0.00 0.00 0.00 0.00 0.00 0.00 0.00 0.00 0.00 0.00 0.00 0.00 0.00 0.00 0.00 0.00 0.00 0.00 0.00 0.00 0.00 0.00 0.00 0.00 0.00 0.00 0.00 0.00 0.00 0.00 0.00 0.00 0.00 0.00 0.00 0.00 0.00 0.00 0.00 0.00 0.00 0.00 0.00 0.00 0.00 0.00 0.00 0.00 0.00 0.00
0.00 0.00 0.00 0.00 0.00 0.00 0.00 0.00 0.00 0.00 0.00 0.00 0.00 0.00 0.00 0.00 0.00 0.00 0.00 0.00 0.00 0.00 0.00 0.00 0.00 0.00 0.00 0.00 0.00 0.00 0.00 0.00 0.00 0.00 0.00 0.00 0.00 0.00 0.00 0.00 0.00 0.00 0.00 0.00 0.00 0.00 0.00 0.00 0.00 0.00 0.00 0.00 0.00 0.00
0.00 0.00 0.00 0.00 0.00 0.00 0.00 0.00 0.00 0.00 0.00 0.00 0.00 0.00 0.00 0.00 0.00 0.00 0.00 0.00 0.00 0.00 0.00 0.00 0.00 0.00 0.00 0.00 0.00 0.00 0.00 0.00 0.00 0.00 0.00 0.00 0.00 0.00 0.00 0.00 0.00 0.00 0.00 0.00 0.00 0.00 0.00 0.00 0.00 0.00 0.00 0.00 0.00 0.00
0.00 0.00 0.00 0.00 0.00 0.00 0.00 0.00 0.00 0.00 0.00 0.00 0.00 0.00 0.00 0.00 0.00 0.00 0.00 0.00 0.00 0.00 0.00 0.00 0.00 0.00 0.00 0.00 0.00 0.00 0.00 0.00 0.00 0.00 0.00 0.00 0.00 0.00 0.00 0.00 0.00 0.00 0.00 0.00 0.00 0.00 0.00 0.00 0.00 0.00 0.00 0.00 0.00 0.00
0.00 0.00 0.00 0.00 0.00 0.00 0.00 0.00 0.00 0.00 0.00 0.00 0.00 0.00 0.00 0.00 0.00 0.00 0.00 0.00 0.00 0.00 0.00 0.00 0.00 0.00 0.00 0.00 0.00 0.00 0.00 0.00 0.00 0.00 0.00 0.00 0.00 0.00 0.00 0.00 0.00 0.00 0.00 0.00 0.00 0.00 0.00 0.00 0.00 0.00 0.00 0.00 0.00 0.00
0.00 0.01 0.00 0.00 0.00 0.00 0.00 0.00 0.00 0.00 0.00 0.00 0.00 0.00 0.00 0.00 0.00 0.00 0.00 0.00 0.00 0.00 0.00 0.00 0.00 0.00 0.00 0.00 0.00 0.00 0.00 0.00 0.00 0.00 0.00 0.00 0.00 0.00 0.00 0.00 0.00 0.00 0.00 0.00 0.00 0.00 0.00 0.00 0.00 0.00 0.00 0.00 0.00 0.00
0.00 0.00 0.00 0.00 0.00 0.00 0.00 0.00 0.00 0.00 0.00 0.00 0.00 0.00 0.00 0.00 0.00 0.00 0.00 0.00 0.00 0.00 0.00 0.00 0.00 0.00 0.00 0.00 0.00 0.00 0.00 0.00 0.00 0.00 0.00 0.00 0.00 0.00 0.00 0.00 0.00 0.00 0.00 0.00 0.00 0.00 0.00 0.00 0.00 0.00 0.00 0.00 0.00 0.00
0.00 0.00 0.00 0.00 0.00 0.00 0.00 0.00 0.00 0.00 0.00 0.00 0.00 0.00 0.00 0.00 0.00 0.00 0.00 0.00 0.00 0.00 0.00 0.00 0.00 0.00 0.00 0.00 0.00 0.00 0.00 0.00 0.00 0.00 0.00 0.00 0.00 0.00 0.00 0.00 0.00 0.00 0.00 0.00 0.00 0.00 0.00 0.00 0.00 0.00 0.00 0.00 0.00 0.00
0.00 0.00 0.00 0.00 0.00 0.00 0.00 0.00 0.00 0.00 0.00 0.00 0.00 0.00 0.00 0.00 0.00 0.00 0.00 0.00 0.00 0.00 0.00 0.00 0.00 0.00 0.00 0.00 0.00 0.00 0.00 0.00 0.00 0.00 0.00 0.00 0.00 0.00 0.00 0.00 0.00 0.00 0.00 0.00 0.00 0.00 0.00 0.00 0.00 0.00 0.00 0.00 0.00 0.00
0.00 0.00 0.00 0.00 0.00 0.00 0.00 0.00 0.00 0.00 0.00 0.00 0.00 0.00 0.00 0.00 0.00 0.00 0.00 0.00 0.00 0.00 0.00 0.00 0.00 0.00 0.00 0.00 0.00 0.00 0.00 0.00 0.00 0.00 0.00 0.00 0.00 0.00 0.00 0.00 0.00 0.00 0.00 0.00 0.00 0.00 0.00 0.00 0.00 0.00 0.00 0.00 0.00 0.00
0.00 0.00 0.00 0.00 0.00 0.00 0.00 0.00 0.00 0.00 0.00 0.00 0.00 0.00 0.00 0.00 0.00 0.00 0.00 0.00 0.00 0.00 0.00 0.00 0.00 0.00 0.00 0.00 0.00 0.00 0.00 0.00 0.00 0.00 0.00 0.00 0.00 0.00 0.00 0.00 0.00 0.00 0.00 0.00 0.00 0.00 0.00 0.00 0.00 0.00 0.00 0.00 0.00 0.00
0.00 0.00 0.00 0.00 0.00 0.00 0.00 0.00 0.00 0.00 0.00 0.00 0.00 0.00 0.00 0.00 0.00 0.00 0.00 0.00 0.00 0.00 0.00 0.00 0.00 0.00 0.00 0.00 0.00 0.00 0.00 0.00 0.00 0.00 0.00 0.00 0.00 0.00 0.00 0.00 0.00 0.00 0.00 0.00 0.00 0.00 0.00 0.00 0.00 0.00 0.00 0.00 0.00 0.00
0.00 0.00 0.00 0.00 0.00 0.00 0.00 0.00 0.00 0.00 0.00 0.00 0.00 0.00 0.00 0.00 0.00 0.00 0.00 0.00 0.00 0.00 0.00 0.00 0.00 0.00 0.00 0.00 0.00 0.00 0.00 0.00 0.00 0.00 0.00 0.00 0.00 0.00 0.00 0.00 0.00 0.00 0.00 0.00 0.00 0.00 0.00 0.00 0.00 0.00 0.00 0.00 0.00 0.00
0.00 0.00 0.00 0.00 0.00 0.00 0.00 0.00 0.00 0.00 0.00 0.00 0.00 0.00 0.00 0.00 0.00 0.00 0.00 0.00 0.00 0.00 0.00 0.00 0.00 0.00 0.00 0.00 0.00 0.00 0.00 0.00 0.00 0.00 0.00 0.00 0.00 0.00 0.00 0.00 0.00 0.00 0.00 0.00 0.00 0.00 0.00 0.00 0.00 0.00 0.00 0.00 0.00 0.00
0.00 0.00 0.00 0.00 0.00 0.00 0.00 0.00 0.00 0.00 0.00 0.00 0.00 0.00 0.00 0.00 0.00 0.00 0.00 0.00 0.00 0.00 0.00 0.00 0.00 0.00 0.00 0.00 0.00 0.00 0.00 0.00 0.00 0.00 0.00 0.00 0.00 0.00 0.00 0.00 0.00 0.00 0.00 0.00 0.00 0.00 0.00 0.00 0.00 0.00 0.00 0.00 0.00 0.00
0.00 0.00 0.00 0.00 0.00 0.00 0.00 0.00 0.00 0.00 0.00 0.00 0.00 0.00 0.00 0.00 0.00 0.00 0.00 0.00 0.00 0.00 0.00 0.00 0.00 0.00 0.00 0.00 0.00 0.00 0.00 0.00 0.00 0.00 0.00 0.00 0.00 0.00 0.00 0.00 0.00 0.00 0.00 0.00 0.00 0.00 0.00 0.00 0.00 0.00 0.00 0.00 0.00 0.00
0.00 0.00 0.00 0.00 0.00 0.00 0.00 0.00 0.00 0.00 0.00 0.00 0.00 0.00 0.00 0.00 0.00 0.00 0.00 0.00 0.00 0.00 0.00 0.00 0.00 0.00 0.00 0.00 0.00 0.00 0.00 0.00 0.00 0.00 0.00 0.00 0.00 0.00 0.00 0.00 0.00 0.00 0.00 0.00 0.00 0.00 0.00 0.00 0.00 0.00 0.00 0.00 0.00 0.00
0.00 0.00 0.00 0.00 0.00 0.00 0.00 0.00 0.00 0.00 0.00 0.00 0.00 0.00 0.00 0.00 0.00 0.00 0.00 0.00 0.00 0.00 0.00 0.00 0.00 0.00 0.00 0.00 0.00 0.00 0.00 0.00 0.00 0.00 0.00 0.00 0.00 0.00 0.00 0.00 0.00 0.00 0.00 0.00 0.00 0.00 0.00 0.00 0.00 0.00 0.00 0.00 0.00 0.00
0.00 0.00 0.00 0.00 0.00 0.00 0.00 0.00 0.00 0.00 0.00 0.00 0.00 0.00 0.00 0.00 0.00 0.00 0.00 0.00 0.00 0.00 0.00 0.00 0.00 0.00 0.00 0.00 0.00 0.00 0.00 0.00 0.00 0.00 0.00 0.00 0.00 0.00 0.00 0.00 0.00 0.00 0.00 0.00 0.00 0.00 0.00 0.00 0.00 0.00 0.00 0.00 0.00 0.00
0.00 0.00 0.00 0.00 0.00 0.00 0.00 0.00 0.00 0.00 0.00 0.00 0.00 0.00 0.00 0.00 0.00 0.00 0.00 0.00 0.00 0.00 0.00 0.00 0.00 0.00 0.00 0.00 0.00 0.00 0.00 0.00 0.00 0.00 0.00 0.00 0.00 0.00 0.00 0.00 0.00 0.00 0.00 0.00 0.00 0.00 0.00 0.00 0.00 0.00 0.00 0.00 0.00 0.00
0.00 0.00 0.00 0.00 0.00 0.00 0.00 0.00 0.00 0.00 0.00 0.00 0.00 0.00 0.00 0.00 0.00 0.00 0.00 0.00 0.00 0.00 0.00 0.00 0.00 0.00 0.00 0.00 0.00 0.00 0.00 0.00 0.00 0.00 0.00 0.00 0.00 0.00 0.00 0.00 0.00 0.00 0.00 0.00 0.00 0.00 0.00 0.00 0.00 0.00 0.00 0.00 0.00 0.00
0.00 0.00 0.00 0.00 0.00 0.00 0.00 0.00 0.00 0.00 0.00 0.00 0.00 0.00 0.00 0.00 0.00 0.00 0.00 0.00 0.00 0.00 0.00 0.00 0.00 0.00 0.00 0.00 0.00 0.00 0.00 0.00 0.00 0.00 0.00 0.00 0.00 0.00 0.00 0.00 0.00 0.00 0.00 0.00 0.00 0.00 0.00 0.00 0.00 0.00 0.00 0.00 0.00 0.00
0.00 0.00 0.00 0.00 0.00 0.00 0.00 0.00 0.00 0.00 0.00 0.00 0.00 0.00 0.00 0.00 0.00 0.00 0.00 0.00 0.00 0.00 0.00 0.00 0.00 0.00 0.00 0.00 0.00 0.00 0.00 0.00 0.00 0.00 0.00 0.00 0.00 0.00 0.00 0.00 0.00 0.00 0.00 0.00 0.00 0.00 0.00 0.00 0.00 0.00 0.00 0.00 0.00 0.00
MSLP
1010.23 1009.48 1008.93 1008.33 1008.21 1008.09 1008.13 1008.05 1007.77 1007.41 1006.63 1005.49 1006.46 1007.90 1008.93 1009.70 1010.32 1010.68 1012.03 1011.96 1012.09 1014.73 1016.19 1015.84 1015.46 1015.21 1015.18 1015.42 1015.92 1016.01 1016.09 1016.28 1016.60 1016.94 1017.46 1017.71 1017.74 1017.53 1017.64 1017.60 1017.79 1018.29 1018.86 1019.53 1019.92 1019.89 1019.26 1018.50 1018.73 1019.32 1020.02 1020.35 1020.81 1021.10
1009.35 1008.61 1007.92 1007.49 1007.28 1007.19 1007.25 1007.37 1007.50 1007.40 1006.82 1006.44 1007.03 1008.09 1009.06 1009.62 1010.31 1010.70 1012.35 1012.36 1012.41 1014.09 1016.71 1016.49 1016.38 1016.21 1016.09 1016.16 1016.01 1016.30 1016.53 1016.48 1016.79 1017.24 1017.65 1017.98 1018.11 1018.20 1018.12 1018.38 1017.96 1018.38 1018.23 1018.72 1019.34 1019.36 1019.25 1019.23 1019.38 1019.87 1020.08 1020.60 1020.97 1021.08
1008.41 1007.87 1007.37 1006.94 1006.54 1006.66 1006.69 1006.77 1007.02 1007.14 1007.51 1007.08 1007.77 1008.56 1009.31 1009.68 1010.30 1010.73 1012.02 1012.51 1013.12 1015.44 1016.91 1016.85 1017.11 1016.68 1016.28 1016.33 1016.12 1016.27 1016.95 1016.83 1017.06 1017.22 1017.73 1018.22 1018.53 1018.60 1018.64 1018.57 1018.41 1018.25 1018.18 1018.71 1019.47 1020.06 1020.17 1020.16 1020.34 1020.51 1020.74 1020.90 1021.01 1021.25
1007.60 1007.02 1006.68 1006.66 1006.28 1006.19 1006.26 1006.25 1006.48 1006.69 1006.90 1007.60 1008.42 1009.21 1009.55 1010.01 1010.56 1010.88 1011.81 1012.43 1012.98 1014.79 1016.88 1018.15 1017.25 1017.17 1016.74 1016.27 1016.08 1016.07 1016.32 1016.93 1017.34 1017.66 1018.29 1018.98 1019.17 1019.08 1019.17 1018.81 1018.82 1018.67 1018.67 1019.25 1020.18 1020.70 1020.85 1020.93 1021.05 1021.08 1021.24 1021.44 1021.57 1021.53
1006.72 1006.21 1006.04 1005.92 1006.07 1006.14 1005.97 1005.53 1005.26 1005.80 1006.60 1007.85 1008.82 1009.49 1009.97 1010.48 1010.91 1011.21 1012.05 1012.50 1012.44 1013.39 1016.89 1018.28 1018.01 1017.66 1017.32 1016.88 1016.67 1016.54 1016.81 1017.41 1018.23 1018.75 1019.39 1019.88 1019.69 1019.77 1019.76 1019.57 1019.32 1018.79 1018.93 1019.39 1019.57 1019.74 1020.17 1020.64 1020.95 1021.24 1021.39 1021.45 1021.46 1021.72
1005.88 1005.45 1005.36 1005.39 1005.68 1005.92 1005.85 1004.40 1004.86 1005.90 1006.93 1008.14 1009.09 1009.75 1010.48 1010.78 1010.83 1011.31 1012.56 1012.52 1012.26 1012.73 1015.71 1018.45 1018.76 1018.44 1017.97 1017.58 1017.42 1017.51 1017.77 1018.28 1018.99 1019.66 1020.24 1020.29 1020.09 1020.11 1020.30 1020.21 1019.35 1019.16 1019.05 1019.07 1019.57 1019.88 1020.13 1020.60 1020.84 1021.02 1021.27 1021.29 1021.56 1021.73
1005.13 1005.03 1005.12 1005.44 1005.91 1005.83 1006.30 1006.05 1006.45 1006.86 1007.74 1008.75 1009.52 1010.11 1010.71 1011.05 1011.40 1012.09 1012.37 1012.12 1012.15 1012.67 1015.24 1018.70 1019.32 1018.95 1018.59 1018.39 1018.53 1018.61 1018.62 1019.16 1019.40 1020.25 1020.56 1020.52 1020.36 1020.30 1020.37 1020.23 1019.67 1019.57 1019.63 1019.81 1019.89 1020.14 1020.70 1020.80 1021.06 1021.09 1021.16 1021.29 1021.34 1021.37
1004.64 1004.64 1004.94 1005.50 1005.68 1006.10 1006.44 1006.63 1006.78 1007.68 1008.74 1009.48 1010.04 1010.69 1011.36 1011.39 1011.89 1012.32 1012.46 1012.24 1012.41 1013.55 1015.16 1018.17 1019.87 1019.66 1018.95 1019.21 1019.50 1019.45 1019.70 1019.84 1020.26 1020.62 1020.74 1020.77 1020.72 1020.57 1020.28 1019.77 1019.72 1019.77 1019.99 1020.17 1020.24 1020.29 1020.39 1020.62 1020.87 1021.04 1021.03 1021.25 1021.38 1021.40
1003.91 1004.14 1004.56 1005.04 1005.57 1006.08 1006.66 1006.80 1007.33 1008.35 1009.28 1009.85 1010.48 1011.31 1011.79 1011.65 1012.24 1012.60 1012.42 1012.46 1012.66 1013.69 1015.76 1017.74 1019.18 1019.76 1019.21 1019.38 1019.69 1019.91 1019.93 1020.50 1020.73 1020.81 1021.01 1021.06 1020.84 1020.31 1019.63 1019.65 1019.73 1019.78 1019.88 1020.16 1020.37 1020.43 1020.62 1020.93 1021.08 1021.17 1021.34 1021.28 1021.26 1021.21
1003.53 1003.72 1004.11 1004.63 1005.27 1005.93 1006.63 1006.77 1007.60 1008.86 1009.67 1010.15 1010.77 1011.27 1012.27 1012.49 1012.48 1012.38 1012.70 1013.05 1013.56 1014.80 1015.96 1018.14 1019.03 1019.42 1019.38 1019.30 1020.00 1020.28 1020.27 1020.84 1021.18 1021.24 1020.93 1020.88 1020.39 1019.66 1019.42 1019.10 1019.28 1019.64 1019.78 1019.99 1020.35 1020.66 1020.82 1021.06 1021.13 1021.17 1021.20 1021.16 1021.21 1021.08
1002.92 1003.27 1003.64 1004.10 1004.47 1004.96 1005.93 1006.59 1007.79 1008.93 1009.76 1010.30 1010.80 1011.88 1012.61 1012.51 1012.69 1012.85 1013.55 1014.24 1015.14 1016.45 1017.00 1018.13 1018.67 1018.93 1019.36 1019.41 1019.86 1020.18 1020.53 1020.83 1021.15 1021.55 1021.34 1020.96 1020.33 1019.86 1019.60 1019.55 1019.68 1019.86 1019.95 1020.06 1020.20 1020.42 1020.64 1020.89 1021.08 1021.12 1020.98 1020.83 1020.60 1020.37
1002.52 1002.96 1003.36 1003.39 1002.91 1004.13 1005.46 1006.59 1007.62 1008.53 1009.10 1009.33 1010.29 1011.58 1012.35 1012.93 1013.49 1013.87 1014.89 1015.31 1015.51 1016.76 1017.52 1018.03 1018.52 1018.62 1019.28 1019.24 1020.02 1020.52 1020.77 1021.19 1021.42 1021.47 1021.65 1021.04 1019.93 1019.52 1019.67 1019.74 1019.89 1020.06 1020.13 1020.27 1020.45 1020.61 1020.68 1020.86 1020.94 1020.95 1020.84 1020.62 1020.32 1019.97
1002.15 1002.84 1003.62 1003.45 1003.76 1004.90 1005.99 1006.55 1007.53 1008.40 1008.81 1009.88 1010.48 1011.75 1012.57 1013.83 1014.25 1014.43 1015.11 1015.75 1016.20 1016.46 1017.17 1017.76 1018.71 1018.82 1019.30 1019.49 1020.28 1020.72 1021.19 1021.66 1021.77 1021.93 1021.80 1020.62 1019.62 1019.54 1019.57 1019.72 1019.91 1020.15 1020.44 1020.63 1020.78 1020.82 1020.83 1020.85 1020.80 1020.81 1020.66 1020.23 1020.08 1019.69
1001.95 1002.85 1003.49 1004.04 1004.28 1005.50 1006.19 1007.00 1007.90 1008.55 1009.25 1010.00 1010.73 1012.68 1013.33 1014.06 1013.78 1013.70 1013.97 1014.32 1015.00 1015.51 1016.36 1017.18 1018.19 1018.81 1019.50 1020.10 1020.80 1021.36 1021.80 1021.90 1022.52 1022.76 1021.52 1020.28 1019.74 1019.69 1019.66 1019.69 1019.93 1020.29 1020.57 1020.91 1021.03 1020.95 1021.01 1021.01 1020.84 1020.61 1020.49 1020.07 1019.73 1019.15
1001.74 1002.78 1003.31 1003.95 1004.65 1005.74 1006.90 1007.61 1008.26 1009.00 1009.80 1010.68 1011.07 1012.81 1013.87 1013.79 1014.04 1014.22 1014.22 1014.64 1015.06 1015.45 1015.98 1017.19 1018.32 1018.99 1020.29 1020.76 1021.07 1021.66 1022.31 1022.58 1022.67 1021.85 1020.67 1019.78 1019.61 1019.66 1019.72 1019.87 1020.09 1020.36 1020.67 1020.95 1020.92 1021.00 1020.93 1020.86 1020.64 1020.32 1019.98 1019.53 1019.24 1018.79
1001.64 1002.66 1002.95 1003.90 1005.13 1006.41 1007.48 1008.11 1008.81 1009.70 1010.73 1011.43 1012.69 1013.54 1013.95 1014.43 1014.81 1014.60 1014.68 1015.16 1015.09 1015.55 1016.01 1016.69 1018.95 1019.96 1020.94 1021.05 1021.54 1021.81 1021.94 1021.90 1021.05 1020.78 1019.69 1019.49 1019.62 1019.61 1019.80 1020.02 1020.07 1020.27 1020.59 1020.76 1020.86 1020.89 1020.77 1020.57 1020.41 1020.14 1019.56 1019.14 1018.76 1018.39
1001.35 1001.19 1002.46 1003.94 1005.52 1007.04 1007.64 1008.61 1009.93 1010.97 1011.77 1012.70 1013.60 1013.17 1013.90 1013.82 1014.02 1014.51 1014.67 1014.97 1015.00 1015.49 1016.86 1017.85 1019.30 1020.46 1021.10 1021.37 1021.62 1021.41 1021.17 1020.27 1019.83 1019.70 1019.43 1019.21 1019.37 1019.55 1019.77 1019.93 1020.09 1020.35 1020.60 1020.73 1020.72 1020.51 1020.39 1020.10 1020.13 1019.70 1019.15 1018.40 1018.24 1017.86
1000.71 1001.28 1002.56 1004.32 1005.69 1007.26 1008.99 1009.97 1010.98 1011.81 1013.23 1013.59 1013.88 1014.37 1014.36 1013.98 1014.31 1014.71 1014.98 1015.15 1015.35 1016.01 1016.81 1017.69 1018.55 1019.97 1020.69 1020.36 1020.61 1019.88 1019.68 1019.54 1019.69 1019.46 1019.36 1019.37 1019.42 1019.53 1019.66 1019.86 1019.94 1020.21 1020.35 1020.33 1020.30 1020.13 1019.98 1019.82 1019.56 1019.19 1018.73 1018.21 1017.77 1017.36
1000.09 1001.26 1003.14 1004.54 1005.55 1007.17 1009.47 1010.96 1011.09 1012.78 1014.08 1014.50 1014.62 1014.65 1014.87 1014.79 1015.29 1015.37 1015.40 1015.60 1015.68 1015.85 1016.72 1017.67 1018.50 1019.09 1019.02 1018.78 1018.78 1019.07 1019.06 1019.31 1019.39 1019.48 1019.47 1019.33 1019.32 1019.44 1019.57 1019.78 1019.90 1019.99 1020.04 1020.16 1020.01 1019.74 1019.35 1019.08 1018.79 1018.42 1018.03 1017.75 1017.51 1016.97
1000.27 1002.37 1003.95 1005.15 1005.88 1007.73 1009.88 1011.44 1011.47 1012.49 1014.11 1014.76 1014.96 1015.56 1015.83 1016.01 1016.29 1016.44 1016.41 1016.45 1016.59 1016.98 1017.46 1017.74 1017.69 1017.38 1017.25 1017.32 1017.72 1017.94 1018.21 1018.60 1019.00 1019.54 1019.51 1019.35 1019.24 1019.39 1019.52 1019.77 1019.87 1019.84 1019.90 1019.72 1019.49 1018.93 1018.66 1018.21 1017.89 1017.60 1017.41 1017.38 1017.05 1016.50
1001.38 1003.26 1004.72 1005.70 1007.64 1008.69 1010.42 1011.85 1012.49 1013.13 1014.21 1015.13 1015.67 1016.03 1016.81 1016.89 1017.53 1017.71 1017.87 1017.79 1017.88 1018.05 1017.90 1017.55 1017.38 1017.12 1017.01 1017.10 1017.43 1017.83 1018.12 1018.33 1018.73 1018.98 1019.18 1019.28 1019.23 1019.32 1019.39 1019.66 1019.96 1019.92 1019.80 1019.31 1018.98 1018.36 1018.10 1017.79 1017.28 1017.17 1017.16 1016.90 1016.63 1016.32
1001.75 1003.44 1005.33 1006.54 1008.13 1009.82 1011.29 1011.98 1012.19 1013.30 1014.34 1015.40 1015.94 1016.45 1017.48 1018.42 1018.94 1019.27 1019.21 1019.00 1018.68 1017.78 1017.34 1017.41 1017.53 1017.53 1017.59 1017.76 1018.05 1018.20 1018.06 1018.43 1018.73 1018.96 1019.11 1019.20 1019.27 1019.52 1019.37 1019.46 1019.79 1019.59 1019.15 1018.87 1018.68 1018.17 1017.60 1017.38 1017.09 1016.85 1016.82 1016.65 1016.36 1016.01
1002.82 1004.10 1005.92 1007.09 1008.62 1010.23 1012.54 1012.22 1012.62 1013.72 1014.51 1015.74 1016.28 1017.29 1018.67 1019.24 1019.55 1019.76 1019.60 1019.27 1018.27 1017.75 1017.57 1017.52 1017.61 1017.82 1018.06 1018.28 1018.63 1018.77 1018.72 1018.86 1019.12 1019.18 1019.19 1019.23 1019.21 1019.22 1019.24 1019.09 1019.16 1019.30 1019.00 1018.40 1018.11 1018.05 1017.80 1017.26 1017.09 1016.93 1016.79 1016.65 1016.39 1015.91
1003.03 1005.42 1006.81 1007.92 1008.89 1011.25 1011.90 1012.61 1013.02 1013.73 1014.64 1015.51 1016.45 1018.18 1018.90 1019.15 1019.46 1019.71 1019.76 1018.97 1017.91 1017.85 1017.90 1018.03 1018.02 1018.65 1018.75 1018.89 1019.40 1018.98 1018.92 1019.08 1019.23 1019.30 1019.32 1019.42 1019.44 1019.04 1018.79 1018.77 1018.73 1018.76 1018.65 1018.45 1018.28 1018.13 1017.95 1017.70 1017.43 1017.21 1016.98 1016.84 1016.57 1016.15
1004.29 1007.32 1008.00 1009.07 1009.73 1010.58 1011.71 1012.81 1013.24 1013.55 1014.68 1015.57 1016.60 1017.78 1018.28 1018.75 1019.09 1019.69 1019.39 1018.20 1018.10 1018.02 1018.09 1018.31 1018.54 1018.95 1019.28 1019.29 1019.33 1018.92 1018.81 1019.04 1019.25 1019.63 1019.14 1019.09 1019.40 1019.11 1018.86 1018.75 1018.67 1018.66 1018.61 1018.67 1018.69 1018.43 1018.05 1017.63 1017.41 1017.17 1017.01 1016.93 1016.43 1015.87
1005.98 1007.92 1008.39 1008.96 1009.69 1010.03 1011.18 1011.89 1012.38 1013.08 1013.89 1015.40 1016.77 1017.56 1018.17 1017.88 1018.83 1018.69 1018.06 1017.37 1017.48 1017.44 1017.62 1017.83 1018.38 1019.20 1019.48 1019.15 1019.35 1019.09 1019.15 1019.03 1019.15 1019.39 1019.10 1018.97 1019.38 1019.65 1019.66 1019.57 1019.20 1018.93 1018.89 1019.07 1018.93 1018.57 1018.09 1017.68 1017.45 1017.23 1016.98 1016.65 1016.22 1015.91
1006.99 1008.26 1008.59 1008.74 1009.14 1009.76 1010.77 1011.29 1011.59 1012.09 1013.63 1015.02 1016.21 1017.14 1017.07 1017.73 1017.89 1016.91 1016.71 1016.79 1016.74 1016.76 1016.84 1017.11 1017.86 1018.40 1018.76 1018.85 1019.05 1019.04 1019.20 1019.24 1019.12 1019.14 1019.22 1019.27 1019.35 1019.53 1019.84 1019.82 1019.65 1019.28 1018.96 1018.86 1018.79 1018.52 1018.09 1017.60 1017.30 1016.97 1016.64 1016.29 1016.15 1016.02
1007.57 1008.26 1008.56 1009.48 1009.56 1009.68 1010.43 1011.43 1011.90 1012.89 1013.56 1014.08 1014.84 1015.66 1016.18 1016.23 1016.30 1016.25 1016.39 1016.54 1016.60 1016.71 1017.04 1017.57 1017.95 1018.11 1018.53 1018.88 1019.17 1019.33 1019.44 1019.25 1019.02 1019.17 1019.48 1019.67 1019.81 1019.82 1019.85 1019.78 1019.57 1019.15 1018.90 1018.71 1018.32 1018.09 1017.84 1017.39 1017.01 1016.63 1016.49 1016.33 1016.09 1016.01
1008.03 1008.37 1008.68 1009.91 1010.13 1010.89 1011.92 1012.29 1012.66 1013.07 1013.38 1013.53 1014.13 1015.17 1015.70 1015.83 1016.17 1016.44 1016.71 1016.68 1016.75 1017.17 1017.89 1018.37 1018.76 1018.64 1018.97 1019.43 1019.59 1019.71 1019.89 1019.77 1019.92 1020.23 1020.36 1020.45 1020.60 1020.38 1019.96 1019.80 1019.50 1019.10 1018.76 1018.67 1018.15 1017.93 1017.46 1016.94 1016.76 1016.63 1016.66 1016.57 1016.35 1016.13
1008.48 1008.67 1009.43 1010.61 1011.38 1012.82 1013.52 1013.52 1013.22 1013.42 1013.91 1014.30 1014.67 1015.43 1015.83 1016.20 1016.46 1016.59 1016.78 1017.10 1017.56 1017.96 1018.27 1018.40 1018.57 1018.97 1019.61 1019.77 1020.05 1020.33 1020.33 1020.18 1020.19 1020.57 1020.92 1020.73 1020.74 1020.44 1020.11 1019.78 1019.41 1018.96 1018.71 1018.63 1018.50 1018.25 1017.64 1017.33 1017.43 1017.21 1017.05 1016.80 1016.63 1016.23
1008.49 1009.05 1010.16 1011.56 1013.01 1013.91 1014.18 1014.18 1014.02 1014.14 1014.71 1015.39 1015.85 1016.12 1016.63 1016.79 1016.60 1016.72 1017.02 1017.36 1017.67 1018.06 1018.39 1018.77 1019.41 1019.55 1019.86 1019.86 1019.98 1020.33 1020.57 1020.44 1020.31 1020.39 1020.45 1020.45 1020.30 1020.09 1019.65 1019.25 1019.01 1018.86 1018.69 1018.67 1018.63 1018.53 1018.13 1017.97 1017.92 1017.68 1017.39 1017.19 1016.79 1016.38
1009.39 1009.78 1010.44 1012.20 1013.83 1014.50 1014.60 1014.57 1014.77 1015.20 1015.85 1016.31 1016.89 1016.85 1016.98 1016.97 1017.21 1017.08 1017.10 1017.46 1018.10 1018.36 1018.14 1018.73 1019.06 1019.35 1019.27 1019.53 1019.58 1019.67 1019.51 1020.07 1020.23 1020.24 1020.22 1019.97 1019.52 1019.08 1018.80 1018.70 1018.60 1018.58 1018.68 1018.66 1018.63 1018.58 1018.30 1018.18 1018.05 1017.88 1017.56 1017.11 1016.71 1016.25
1010.29 1010.49 1010.91 1012.42 1013.94 1014.53 1014.83 1014.88 1015.31 1016.08 1016.43 1017.12 1017.57 1017.81 1017.98 1017.93 1017.75 1017.09 1016.97 1017.17 1017.51 1017.73 1018.19 1018.27 1018.74 1018.62 1018.80 1019.13 1019.43 1019.67 1019.77 1019.95 1020.09 1020.06 1019.68 1019.25 1018.75 1018.58 1018.53 1018.53 1018.42 1018.48 1018.53 1018.50 1018.66 1018.41 1018.24 1018.25 1018.20 1017.96 1017.39 1016.92 1016.47 1015.94
Thickness
5368 5368 5369 5380 5385 5395 5400 5410 5424 5441 5458 5482 5484 5482 5479 5482 5488 5495 5492 5501 5504 5482 5478 5486 5493 5505 5506 5505 5503 5501 5503 5500 5493 5493 5489 5482 5483 5487 5486 5488 5483 5482 5468 5469 5467 5472 5475 5483 5482 5484 5463 5455 5451 5448
5372 5372 5380 5390 5403 5414 5423 5430 5437 5444 5461 5474 5479 5480 5480 5483 5490 5494 5489 5496 5502 5492 5475 5483 5486 5491 5494 5495 5497 5493 5499 5498 5494 5491 5486 5477 5485 5474 5475 5476 5484 5481 5480 5474 5472 5474 5464 5458 5460 5453 5452 5445 5443 5442
5376 5378 5386 5399 5414 5423 5431 5441 5444 5452 5459 5473 5475 5476 5478 5483 5488 5493 5490 5493 5494 5478 5473 5476 5478 5487 5492 5492 5496 5498 5489 5493 5492 5487 5484 5482 5492 5472 5475 5473 5480 5480 5476 5471 5469 5459 5448 5445 5444 5441 5439 5437 5435 5432
5379 5385 5396 5404 5419 5433 5441 5449 5453 5460 5465 5471 5470 5471 5475 5481 5485 5492 5492 5494 5495 5483 5471 5464 5478 5482 5487 5492 5496 5498 5496 5491 5486 5482 5478 5474 5482 5469 5466 5475 5472 5470 5472 5462 5450 5438 5438 5437 5435 5431 5429 5425 5422 5419
5384 5393 5404 5416 5428 5436 5446 5457 5468 5469 5471 5470 5469 5470 5472 5476 5483 5490 5490 5491 5497 5497 5467 5460 5468 5476 5480 5486 5489 5492 5491 5486 5478 5471 5464 5471 5459 5463 5453 5456 5457 5463 5463 5458 5458 5449 5445 5436 5430 5425 5422 5418 5415 5408
5390 5401 5414 5428 5434 5441 5451 5471 5474 5472 5473 5470 5468 5468 5468 5474 5484 5488 5484 5492 5498 5499 5476 5461 5462 5468 5474 5479 5481 5482 5481 5475 5469 5465 5457 5455 5458 5456 5447 5452 5459 5455 5454 5453 5445 5443 5437 5431 5425 5422 5416 5412 5405 5398
5397 5407 5421 5426 5430 5444 5447 5460 5463 5466 5467 5466 5465 5466 5468 5472 5480 5483 5490 5494 5497 5498 5479 5453 5447 5463 5468 5471 5469 5470 5470 5465 5464 5456 5454 5453 5452 5447 5447 5450 5455 5449 5444 5439 5436 5431 5426 5422 5414 5411 5406 5399 5396 5391
5401 5411 5420 5426 5437 5441 5449 5455 5460 5462 5458 5460 5462 5462 5464 5470 5474 5478 5484 5490 5493 5487 5478 5444 5449 5451 5464 5460 5461 5459 5460 5457 5453 5450 5448 5449 5446 5442 5442 5450 5446 5442 5435 5430 5427 5423 5418 5413 5406 5400 5394 5387 5382 5377
5405 5417 5426 5433 5438 5443 5446 5452 5456 5455 5455 5458 5460 5459 5461 5468 5472 5475 5483 5487 5489 5487 5462 5445 5446 5444 5457 5460 5456 5455 5454 5451 5447 5451 5446 5444 5441 5436 5454 5447 5440 5436 5434 5425 5419 5414 5408 5402 5395 5388 5380 5376 5373 5366
5406 5423 5431 5437 5441 5446 5446 5452 5453 5450 5453 5456 5458 5461 5459 5461 5469 5476 5477 5479 5474 5470 5464 5449 5434 5450 5453 5461 5456 5447 5452 5443 5416 5443 5439 5443 5441 5448 5443 5443 5438 5430 5425 5418 5412 5400 5398 5378 5383 5376 5370 5365 5357 5354
5414 5425 5435 5442 5449 5454 5452 5455 5455 5452 5451 5453 5456 5454 5455 5462 5466 5469 5466 5465 5463 5456 5457 5447 5443 5452 5450 5443 5456 5450 5449 5447 5442 5426 5431 5427 5434 5438 5436 5432 5426 5420 5416 5413 5407 5399 5391 5381 5371 5364 5358 5352 5349 5345
5416 5427 5436 5447 5463 5460 5458 5458 5458 5458 5457 5461 5459 5455 5455 5457 5454 5459 5437 5458 5467 5456 5453 5453 5450 5452 5446 5449 5443 5442 5429 5439 5422 5437 5438 5432 5433 5435 5429 5425 5418 5411 5409 5404 5396 5388 5379 5369 5361 5353 5347 5341 5338 5334
5417 5426 5433 5448 5454 5452 5453 5456 5455 5455 5458 5455 5455 5451 5457 5439 5458 5458 5469 5459 5460 5455 5451 5451 5443 5447 5443 5446 5437 5430 5417 5411 5427 5434 5412 5425 5432 5429 5423 5417 5413 5399 5390 5387 5381 5373 5366 5357 5349 5341 5333 5329 5323 5318
5417 5425 5433 5440 5449 5448 5449 5450 5452 5452 5452 5450 5455 5452 5450 5446 5457 5469 5476 5463 5459 5456 5456 5452 5444 5444 5441 5433 5429 5416 5429 5429 5402 5382 5409 5411 5423 5420 5414 5411 5405 5399 5387 5372 5362 5357 5349 5338 5330 5324 5317 5313 5308 5303
5417 5425 5434 5440 5445 5444 5441 5446 5447 5448 5445 5441 5453 5453 5430 5447 5451 5451 5441 5453 5456 5460 5457 5445 5436 5439 5421 5422 5427 5423 5423 5386 5399 5409 5410 5409 5416 5412 5407 5402 5394 5386 5374 5364 5356 5343 5331 5324 5318 5313 5305 5300 5291 5284
5417 5422 5433 5438 5438 5436 5438 5441 5441 5441 5437 5438 5431 5436 5444 5440 5440 5439 5452 5457 5450 5453 5448 5446 5423 5417 5414 5415 5407 5394 5400 5398 5412 5402 5415 5413 5411 5406 5399 5393 5385 5375 5363 5354 5344 5336 5328 5319 5311 5305 5298 5290 5281 5272
5413 5431 5432 5435 5433 5430 5434 5434 5430 5424 5426 5431 5429 5443 5436 5444 5444 5446 5452 5454 5451 5453 5434 5428 5423 5419 5407 5394 5406 5404 5399 5412 5408 5408 5405 5410 5406 5399 5391 5384 5376 5365 5354 5343 5333 5325 5315 5307 5293 5286 5286 5284 5270 5263
5424 5430 5434 5431 5430 5427 5421 5420 5420 5419 5415 5418 5431 5429 5439 5448 5447 5448 5446 5447 5448 5440 5435 5426 5419 5401 5405 5404 5399 5413 5408 5397 5401 5403 5402 5402 5398 5392 5385 5377 5369 5356 5346 5328 5316 5307 5296 5291 5285 5281 5272 5267 5261 5254
5427 5431 5428 5430 5432 5426 5417 5414 5420 5415 5412 5412 5419 5424 5431 5439 5435 5436 5439 5439 5439 5439 5432 5416 5409 5401 5418 5411 5410 5394 5390 5400 5408 5403 5397 5396 5391 5384 5376 5364 5353 5342 5332 5318 5309 5304 5296 5284 5277 5271 5263 5253 5248 5246
5424 5420 5420 5422 5427 5420 5413 5404 5413 5415 5408 5407 5410 5412 5424 5425 5424 5422 5426 5428 5428 5412 5423 5419 5432 5434 5432 5426 5413 5409 5405 5405 5400 5396 5394 5387 5382 5369 5362 5353 5346 5335 5322 5309 5299 5296 5285 5277 5267 5258 5248 5241 5239 5238
5412 5409 5410 5415 5408 5410 5405 5399 5403 5406 5402 5402 5402 5411 5405 5406 5408 5404 5400 5408 5405 5403 5418 5418 5430 5425 5422 5419 5415 5411 5407 5403 5398 5394 5387 5372 5376 5362 5353 5342 5328 5323 5310 5306 5295 5289 5277 5264 5258 5246 5239 5234 5229 5225
5410 5410 5407 5408 5405 5398 5395 5399 5406 5403 5400 5396 5401 5405 5405 5396 5386 5389 5391 5390 5390 5410 5414 5416 5411 5411 5413 5414 5407 5404 5402 5397 5390 5384 5381 5375 5365 5352 5344 5333 5319 5307 5300 5289 5276 5271 5264 5250 5242 5235 5227 5223 5220 5216
5405 5406 5401 5404 5401 5396 5387 5396 5403 5394 5405 5391 5392 5397 5384 5374 5374 5374 5381 5378 5396 5403 5407 5408 5402 5394 5397 5392 5389 5387 5384 5383 5380 5375 5369 5363 5356 5343 5332 5325 5312 5297 5293 5284 5266 5253 5242 5237 5227 5220 5214 5208 5205 5205
5404 5392 5392 5392 5395 5386 5391 5382 5392 5393 5391 5395 5395 5386 5380 5376 5371 5367 5391 5380 5395 5398 5400 5395 5392 5390 5386 5384 5380 5379 5377 5371 5364 5357 5357 5351 5336 5337 5328 5317 5303 5288 5277 5266 5252 5236 5221 5214 5209 5202 5197 5192 5191 5190
5397 5380 5387 5375 5376 5389 5385 5374 5379 5394 5392 5388 5390 5380 5377 5372 5380 5369 5382 5388 5378 5386 5387 5383 5381 5380 5377 5372 5369 5371 5370 5365 5357 5352 5347 5341 5331 5323 5315 5301 5290 5278 5264 5247 5235 5224 5214 5204 5195 5189 5185 5182 5184 5189
5381 5370 5383 5376 5374 5395 5388 5394 5392 5396 5396 5384 5371 5364 5364 5382 5382 5393 5389 5384 5387 5384 5383 5388 5383 5371 5368 5369 5368 5366 5364 5356 5349 5342 5339 5329 5318 5306 5292 5287 5279 5267 5250 5237 5225 5218 5209 5200 5190 5183 5180 5181 5186 5186
5376 5364 5376 5386 5390 5395 5398 5399 5404 5409 5403 5393 5373 5370 5392 5407 5389 5393 5387 5383 5388 5383 5383 5383 5378 5370 5369 5365 5362 5358 5352 5344 5342 5334 5325 5316 5307 5296 5282 5271 5261 5250 5239 5227 5219 5211 5206 5200 5192 5186 5184 5185 5183 5184
5366 5370 5381 5375 5386 5392 5402 5397 5404 5400 5390 5385 5390 5400 5413 5403 5400 5385 5382 5381 5376 5373 5370 5366 5365 5362 5359 5356 5351 5348 5340 5334 5328 5319 5310 5301 5289 5278 5267 5256 5246 5239 5229 5222 5218 5211 5207 5202 5196 5194 5190 5187 5185 5184
5354 5366 5377 5373 5382 5380 5377 5389 5389 5384 5386 5391 5396 5376 5375 5371 5370 5370 5372 5370 5366 5369 5367 5364 5356 5349 5348 5343 5339 5333 5328 5323 5318 5308 5294 5286 5271 5263 5253 5244 5234 5227 5221 5215 5214 5210 5207 5204 5200 5195 5187 5184 5182 5181
5359 5364 5371 5366 5376 5368 5355 5358 5370 5370 5372 5373 5373 5364 5364 5362 5359 5357 5360 5359 5360 5357 5352 5349 5344 5345 5337 5335 5327 5324 5314 5308 5303 5293 5279 5272 5263 5254 5245 5236 5228 5223 5218 5214 5208 5202 5201 5194 5187 5182 5180 5179 5178 5180
5362 5364 5359 5351 5343 5340 5342 5345 5353 5360 5354 5349 5343 5351 5353 5349 5352 5351 5350 5346 5344 5345 5347 5340 5334 5325 5328 5318 5314 5309 5306 5295 5287 5279 5270 5261 5252 5245 5237 5230 5225 5220 5215 5209 5203 5197 5191 5185 5178 5174 5173 5171 5171 5174
5350 5355 5359 5351 5337 5331 5334 5343 5344 5340 5331 5332 5330 5330 5337 5345 5353 5346 5342 5340 5339 5340 5342 5333 5329 5328 5320 5314 5308 5302 5301 5286 5277 5269 5260 5252 5247 5240 5234 5227 5222 5217 5210 5205 5199 5194 5188 5181 5176 5173 5171 5168 5166 5167
5341 5344 5346 5338 5330 5330 5329 5335 5328 5326 5322 5321 5319 5314 5317 5326 5345 5341 5335 5335 5337 5335 5332 5326 5319 5316 5313 5306 5298 5291 5287 5277 5269 5264 5258 5252 5245 5237 5228 5223 5219 5212 5207 5203 5197 5192 5187 5179 5173 5170 5171 5168 5165 5164